Year,Month,Day,Hour,Minute,Value (Times are PST for temperature in C)
2014,05,01,00,00,13.00
2014,05,01,00,01,13.00
2014,05,01,00,02,13.00
2014,05,01,00,03,13.10
2014,05,01,00,04,13.10
2014,05,01,00,05,13.10
2014,05,01,00,06,13.10
2014,05,01,00,07,13.10
2014,05,01,00,08,13.00
2014,05,01,00,09,13.00
2014,05,01,00,10,13.00
2014,05,01,00,11,12.90
2014,05,01,00,12,12.90
2014,05,01,00,13,12.80
2014,05,01,00,14,12.80
2014,05,01,00,15,12.70
2014,05,01,00,16,12.70
2014,05,01,00,17,12.60
2014,05,01,00,18,12.60
2014,05,01,00,19,12.50
2014,05,01,00,20,12.50
2014,05,01,00,21,12.50
2014,05,01,00,22,12.40
2014,05,01,00,23,12.40
2014,05,01,00,24,12.30
2014,05,01,00,25,12.30
2014,05,01,00,26,12.30
2014,05,01,00,27,12.30
2014,05,01,00,28,12.20
2014,05,01,00,29,12.20
2014,05,01,00,30,12.20
2014,05,01,00,31,12.10
2014,05,01,00,32,12.10
2014,05,01,00,33,12.10
2014,05,01,00,34,12.10
2014,05,01,00,35,12.10
2014,05,01,00,36,12.10
2014,05,01,00,37,12.00
2014,05,01,00,38,12.00
2014,05,01,00,39,12.00
2014,05,01,00,40,12.00
2014,05,01,00,41,12.10
2014,05,01,00,42,12.10
2014,05,01,00,43,12.10
2014,05,01,00,44,12.10
2014,05,01,00,45,12.20
2014,05,01,00,46,12.20
2014,05,01,00,47,12.20
2014,05,01,00,48,12.20
2014,05,01,00,49,12.30
2014,05,01,00,50,12.30
2014,05,01,00,51,12.30
2014,05,01,00,52,12.30
2014,05,01,00,53,12.30
2014,05,01,00,54,12.30
2014,05,01,00,55,12.30
2014,05,01,00,56,12.40
2014,05,01,00,57,12.40
2014,05,01,00,58,12.40
2014,05,01,00,59,12.50
2014,05,01,01,00,12.60
2014,05,01,01,01,12.60
2014,05,01,01,02,12.70
2014,05,01,01,03,12.80
2014,05,01,01,04,12.80
2014,05,01,01,05,12.80
2014,05,01,01,06,12.80
2014,05,01,01,07,12.80
2014,05,01,01,08,12.80
2014,05,01,01,09,12.80
2014,05,01,01,10,12.80
2014,05,01,01,11,12.80
2014,05,01,01,12,12.80
2014,05,01,01,13,12.80
2014,05,01,01,14,12.80
2014,05,01,01,15,12.80
2014,05,01,01,16,12.80
2014,05,01,01,17,12.80
2014,05,01,01,18,12.70
2014,05,01,01,19,12.70
2014,05,01,01,20,12.70
2014,05,01,01,21,12.70
2014,05,01,01,22,12.70
2014,05,01,01,23,12.70
2014,05,01,01,24,12.60
2014,05,01,01,25,12.60
2014,05,01,01,26,12.60
2014,05,01,01,27,12.70
2014,05,01,01,28,12.70
2014,05,01,01,29,12.80
2014,05,01,01,30,12.80
2014,05,01,01,31,12.80
2014,05,01,01,32,12.80
2014,05,01,01,33,12.80
2014,05,01,01,34,12.90
2014,05,01,01,35,12.90
2014,05,01,01,36,12.90
2014,05,01,01,37,12.90
2014,05,01,01,38,12.90
2014,05,01,01,39,12.90
2014,05,01,01,40,12.90
2014,05,01,01,41,12.90
2014,05,01,01,42,12.80
2014,05,01,01,43,12.80
2014,05,01,01,44,12.80
2014,05,01,01,45,12.80
2014,05,01,01,46,12.80
2014,05,01,01,47,12.80
2014,05,01,01,48,12.80
2014,05,01,01,49,12.80
2014,05,01,01,50,12.80
2014,05,01,01,51,12.80
2014,05,01,01,52,12.80
2014,05,01,01,53,12.80
2014,05,01,01,54,12.80
2014,05,01,01,55,12.80
2014,05,01,01,56,12.70
2014,05,01,01,57,12.60
2014,05,01,01,58,12.60
2014,05,01,01,59,12.50
2014,05,01,02,00,12.40
2014,05,01,02,01,12.40
2014,05,01,02,02,12.30
2014,05,01,02,03,12.30
2014,05,01,02,04,12.30
2014,05,01,02,05,12.30
2014,05,01,02,06,12.20
2014,05,01,02,07,12.20
2014,05,01,02,08,12.20
2014,05,01,02,09,12.20
2014,05,01,02,10,12.20
2014,05,01,02,11,12.10
2014,05,01,02,12,12.10
2014,05,01,02,13,12.10
2014,05,01,02,14,12.10
2014,05,01,02,15,12.10
2014,05,01,02,16,12.10
2014,05,01,02,17,12.10
2014,05,01,02,18,12.10
2014,05,01,02,19,12.10
2014,05,01,02,20,12.10
2014,05,01,02,21,12.10
2014,05,01,02,22,12.10
2014,05,01,02,23,12.10
2014,05,01,02,24,12.10
2014,05,01,02,25,12.10
2014,05,01,02,26,12.10
2014,05,01,02,27,12.10
2014,05,01,02,28,12.10
2014,05,01,02,29,12.10
2014,05,01,02,30,12.10
2014,05,01,02,31,12.00
2014,05,01,02,32,12.00
2014,05,01,02,33,12.00
2014,05,01,02,34,12.00
2014,05,01,02,35,11.90
2014,05,01,02,36,11.90
2014,05,01,02,37,11.90
2014,05,01,02,38,11.80
2014,05,01,02,39,11.80
2014,05,01,02,40,11.80
2014,05,01,02,41,11.80
2014,05,01,02,42,11.80
2014,05,01,02,43,11.80
2014,05,01,02,44,11.80
2014,05,01,02,45,11.80
2014,05,01,02,46,11.80
2014,05,01,02,47,11.80
2014,05,01,02,48,11.80
2014,05,01,02,49,11.80
2014,05,01,02,50,11.80
2014,05,01,02,51,11.80
2014,05,01,02,52,11.80
2014,05,01,02,53,11.80
2014,05,01,02,54,11.70
2014,05,01,02,55,11.70
2014,05,01,02,56,11.70
2014,05,01,02,57,11.70
2014,05,01,02,58,11.60
2014,05,01,02,59,11.60
2014,05,01,03,00,11.60
2014,05,01,03,01,11.60
2014,05,01,03,02,11.50
2014,05,01,03,03,11.40
2014,05,01,03,04,11.40
2014,05,01,03,05,11.40
2014,05,01,03,06,11.40
2014,05,01,03,07,11.30
2014,05,01,03,08,11.30
2014,05,01,03,09,11.20
2014,05,01,03,10,11.20
2014,05,01,03,11,11.20
2014,05,01,03,12,11.10
2014,05,01,03,13,11.10
2014,05,01,03,14,11.10
2014,05,01,03,15,11.10
2014,05,01,03,16,11.10
2014,05,01,03,17,11.10
2014,05,01,03,18,11.10
2014,05,01,03,19,11.10
2014,05,01,03,20,11.00
2014,05,01,03,21,10.90
2014,05,01,03,22,10.90
2014,05,01,03,23,10.90
2014,05,01,03,24,10.90
2014,05,01,03,25,10.90
2014,05,01,03,26,10.90
2014,05,01,03,27,10.90
2014,05,01,03,28,10.90
2014,05,01,03,29,10.90
2014,05,01,03,30,10.90
2014,05,01,03,31,10.90
2014,05,01,03,32,10.90
2014,05,01,03,33,10.90
2014,05,01,03,34,10.90
2014,05,01,03,35,10.90
2014,05,01,03,36,10.80
2014,05,01,03,37,10.80
2014,05,01,03,38,10.80
2014,05,01,03,39,10.70
2014,05,01,03,40,10.70
2014,05,01,03,41,10.70
2014,05,01,03,42,10.60
2014,05,01,03,43,10.60
2014,05,01,03,44,10.60
2014,05,01,03,45,10.60
2014,05,01,03,46,10.60
2014,05,01,03,47,10.40
2014,05,01,03,48,10.40
2014,05,01,03,49,10.40
2014,05,01,03,50,10.40
2014,05,01,03,51,10.40
2014,05,01,03,52,10.40
2014,05,01,03,53,10.40
2014,05,01,03,54,10.40
2014,05,01,03,55,10.40
2014,05,01,03,56,10.40
2014,05,01,03,57,10.40
2014,05,01,03,58,10.40
2014,05,01,03,59,10.40
2014,05,01,04,00,10.50
2014,05,01,04,01,10.60
2014,05,01,04,02,10.60
2014,05,01,04,03,10.60
2014,05,01,04,04,10.60
2014,05,01,04,05,10.60
2014,05,01,04,06,10.60
2014,05,01,04,07,10.60
2014,05,01,04,08,10.60
2014,05,01,04,09,10.60
2014,05,01,04,10,10.60
2014,05,01,04,11,10.60
2014,05,01,04,12,10.60
2014,05,01,04,13,10.60
2014,05,01,04,14,10.60
2014,05,01,04,15,10.60
2014,05,01,04,16,10.60
2014,05,01,04,17,10.60
2014,05,01,04,18,10.60
2014,05,01,04,19,10.60
2014,05,01,04,20,10.60
2014,05,01,04,21,10.50
2014,05,01,04,22,10.40
2014,05,01,04,23,10.40
2014,05,01,04,24,10.40
2014,05,01,04,25,10.40
2014,05,01,04,26,10.40
2014,05,01,04,27,10.40
2014,05,01,04,28,10.40
2014,05,01,04,29,10.40
2014,05,01,04,30,10.40
2014,05,01,04,31,10.40
2014,05,01,04,32,10.40
2014,05,01,04,33,10.40
2014,05,01,04,34,10.40
2014,05,01,04,35,10.40
2014,05,01,04,36,10.30
2014,05,01,04,37,10.30
2014,05,01,04,38,10.30
2014,05,01,04,39,10.30
2014,05,01,04,40,10.30
2014,05,01,04,41,10.30
2014,05,01,04,42,10.30
2014,05,01,04,43,10.30
2014,05,01,04,44,10.30
2014,05,01,04,45,10.30
2014,05,01,04,46,10.30
2014,05,01,04,47,10.30
2014,05,01,04,48,10.30
2014,05,01,04,49,10.30
2014,05,01,04,50,10.30
2014,05,01,04,51,10.30
2014,05,01,04,52,10.40
2014,05,01,04,53,10.40
2014,05,01,04,54,10.40
2014,05,01,04,55,10.40
2014,05,01,04,56,10.40
2014,05,01,04,57,10.40
2014,05,01,04,58,10.40
2014,05,01,04,59,10.40
2014,05,01,05,00,10.40
2014,05,01,05,01,10.40
2014,05,01,05,02,10.40
2014,05,01,05,03,10.40
2014,05,01,05,04,10.40
2014,05,01,05,05,10.40
2014,05,01,05,06,10.40
2014,05,01,05,07,10.40
2014,05,01,05,08,10.40
2014,05,01,05,09,10.40
2014,05,01,05,10,10.40
2014,05,01,05,11,10.40
2014,05,01,05,12,10.40
2014,05,01,05,13,10.40
2014,05,01,05,14,10.40
2014,05,01,05,15,10.40
2014,05,01,05,16,10.40
2014,05,01,05,17,10.40
2014,05,01,05,18,10.40
2014,05,01,05,19,10.40
2014,05,01,05,20,10.40
2014,05,01,05,21,10.40
2014,05,01,05,22,10.40
2014,05,01,05,23,10.40
2014,05,01,05,24,10.40
2014,05,01,05,25,10.40
2014,05,01,05,26,10.40
2014,05,01,05,27,10.40
2014,05,01,05,28,10.40
2014,05,01,05,29,10.40
2014,05,01,05,30,10.40
2014,05,01,05,31,10.40
2014,05,01,05,32,10.40
2014,05,01,05,33,10.40
2014,05,01,05,34,10.40
2014,05,01,05,35,10.40
2014,05,01,05,36,10.40
2014,05,01,05,37,10.40
2014,05,01,05,38,10.40
2014,05,01,05,39,10.40
2014,05,01,05,40,10.40
2014,05,01,05,41,10.40
2014,05,01,05,42,10.40
2014,05,01,05,43,10.40
2014,05,01,05,44,10.40
2014,05,01,05,45,10.40
2014,05,01,05,46,10.40
2014,05,01,05,47,10.40
2014,05,01,05,48,10.40
2014,05,01,05,49,10.40
2014,05,01,05,50,10.40
2014,05,01,05,51,10.40
2014,05,01,05,52,10.40
2014,05,01,05,53,10.30
2014,05,01,05,54,10.30
2014,05,01,05,55,10.30
2014,05,01,05,56,10.30
2014,05,01,05,57,10.30
2014,05,01,05,58,10.30
2014,05,01,05,59,10.20
2014,05,01,06,00,10.20
2014,05,01,06,01,10.20
2014,05,01,06,02,10.20
2014,05,01,06,03,10.20
2014,05,01,06,04,10.30
2014,05,01,06,05,10.30
2014,05,01,06,06,10.30
2014,05,01,06,07,10.40
2014,05,01,06,08,10.40
2014,05,01,06,09,10.50
2014,05,01,06,10,10.60
2014,05,01,06,11,10.60
2014,05,01,06,12,10.60
2014,05,01,06,13,10.60
2014,05,01,06,14,10.60
2014,05,01,06,15,10.60
2014,05,01,06,16,10.60
2014,05,01,06,17,10.60
2014,05,01,06,18,10.60
2014,05,01,06,19,10.60
2014,05,01,06,20,10.60
2014,05,01,06,21,10.60
2014,05,01,06,22,10.60
2014,05,01,06,23,10.60
2014,05,01,06,24,10.60
2014,05,01,06,25,10.60
2014,05,01,06,26,10.60
2014,05,01,06,27,10.60
2014,05,01,06,28,10.70
2014,05,01,06,29,10.70
2014,05,01,06,30,10.80
2014,05,01,06,31,10.80
2014,05,01,06,32,10.90
2014,05,01,06,33,10.90
2014,05,01,06,34,11.00
2014,05,01,06,35,11.10
2014,05,01,06,36,11.10
2014,05,01,06,37,11.20
2014,05,01,06,38,11.30
2014,05,01,06,39,11.40
2014,05,01,06,40,11.40
2014,05,01,06,41,11.40
2014,05,01,06,42,11.50
2014,05,01,06,43,11.60
2014,05,01,06,44,11.60
2014,05,01,06,45,11.60
2014,05,01,06,46,11.70
2014,05,01,06,47,11.80
2014,05,01,06,48,12.00
2014,05,01,06,49,12.10
2014,05,01,06,50,12.30
2014,05,01,06,51,12.40
2014,05,01,06,52,12.50
2014,05,01,06,53,12.60
2014,05,01,06,54,12.70
2014,05,01,06,55,12.80
2014,05,01,06,56,12.80
2014,05,01,06,57,12.90
2014,05,01,06,58,13.00
2014,05,01,06,59,13.00
2014,05,01,07,00,13.00
2014,05,01,07,01,13.00
2014,05,01,07,02,13.00
2014,05,01,07,03,13.00
2014,05,01,07,04,12.90
2014,05,01,07,05,12.80
2014,05,01,07,06,12.80
2014,05,01,07,07,12.70
2014,05,01,07,08,12.70
2014,05,01,07,09,12.60
2014,05,01,07,10,12.60
2014,05,01,07,11,12.50
2014,05,01,07,12,12.50
2014,05,01,07,13,12.50
2014,05,01,07,14,12.50
2014,05,01,07,15,12.40
2014,05,01,07,16,12.40
2014,05,01,07,17,12.40
2014,05,01,07,18,12.50
2014,05,01,07,19,12.50
2014,05,01,07,20,12.50
2014,05,01,07,21,12.60
2014,05,01,07,22,12.60
2014,05,01,07,23,12.70
2014,05,01,07,24,12.80
2014,05,01,07,25,12.90
2014,05,01,07,26,13.00
2014,05,01,07,27,13.00
2014,05,01,07,28,13.10
2014,05,01,07,29,13.20
2014,05,01,07,30,13.20
2014,05,01,07,31,13.30
2014,05,01,07,32,13.30
2014,05,01,07,33,13.30
2014,05,01,07,34,13.40
2014,05,01,07,35,13.40
2014,05,01,07,36,13.50
2014,05,01,07,37,13.60
2014,05,01,07,38,13.60
2014,05,01,07,39,13.70
2014,05,01,07,40,13.80
2014,05,01,07,41,13.90
2014,05,01,07,42,14.10
2014,05,01,07,43,14.20
2014,05,01,07,44,14.30
2014,05,01,07,45,14.40
2014,05,01,07,46,14.50
2014,05,01,07,47,14.60
2014,05,01,07,48,14.70
2014,05,01,07,49,14.80
2014,05,01,07,50,14.80
2014,05,01,07,51,14.90
2014,05,01,07,52,14.90
2014,05,01,07,53,15.00
2014,05,01,07,54,15.00
2014,05,01,07,55,15.00
2014,05,01,07,56,15.10
2014,05,01,07,57,15.10
2014,05,01,07,58,15.10
2014,05,01,07,59,15.10
2014,05,01,08,00,15.20
2014,05,01,08,01,15.30
2014,05,01,08,02,15.30
2014,05,01,08,03,15.40
2014,05,01,08,04,15.50
2014,05,01,08,05,15.50
2014,05,01,08,06,15.60
2014,05,01,08,07,15.60
2014,05,01,08,08,15.70
2014,05,01,08,09,15.80
2014,05,01,08,10,15.80
2014,05,01,08,11,15.80
2014,05,01,08,12,15.90
2014,05,01,08,13,16.00
2014,05,01,08,14,16.10
2014,05,01,08,15,16.20
2014,05,01,08,16,16.30
2014,05,01,08,17,16.30
2014,05,01,08,18,16.40
2014,05,01,08,19,16.40
2014,05,01,08,20,16.50
2014,05,01,08,21,16.60
2014,05,01,08,22,16.70
2014,05,01,08,23,16.70
2014,05,01,08,24,16.80
2014,05,01,08,25,16.90
2014,05,01,08,26,16.90
2014,05,01,08,27,17.00
2014,05,01,08,28,17.00
2014,05,01,08,29,17.00
2014,05,01,08,30,17.10
2014,05,01,08,31,17.10
2014,05,01,08,32,17.10
2014,05,01,08,33,17.20
2014,05,01,08,34,17.30
2014,05,01,08,35,17.30
2014,05,01,08,36,17.20
2014,05,01,08,37,17.20
2014,05,01,08,38,17.10
2014,05,01,08,39,17.10
2014,05,01,08,40,17.10
2014,05,01,08,41,17.00
2014,05,01,08,42,16.90
2014,05,01,08,43,16.90
2014,05,01,08,44,16.80
2014,05,01,08,45,16.80
2014,05,01,08,46,16.80
2014,05,01,08,47,16.80
2014,05,01,08,48,16.70
2014,05,01,08,49,16.70
2014,05,01,08,50,16.60
2014,05,01,08,51,16.50
2014,05,01,08,52,16.40
2014,05,01,08,53,16.40
2014,05,01,08,54,16.40
2014,05,01,08,55,16.40
2014,05,01,08,56,16.40
2014,05,01,08,57,16.40
2014,05,01,08,58,16.50
2014,05,01,08,59,16.70
2014,05,01,09,00,16.80
2014,05,01,09,01,17.00
2014,05,01,09,02,17.20
2014,05,01,09,03,17.30
2014,05,01,09,04,17.50
2014,05,01,09,05,17.60
2014,05,01,09,06,17.70
2014,05,01,09,07,17.80
2014,05,01,09,08,17.90
2014,05,01,09,09,18.00
2014,05,01,09,10,18.10
2014,05,01,09,11,18.20
2014,05,01,09,12,18.30
2014,05,01,09,13,18.40
2014,05,01,09,14,18.50
2014,05,01,09,15,18.50
2014,05,01,09,16,18.60
2014,05,01,09,17,18.70
2014,05,01,09,18,18.80
2014,05,01,09,19,18.90
2014,05,01,09,20,19.00
2014,05,01,09,21,19.10
2014,05,01,09,22,19.10
2014,05,01,09,23,19.10
2014,05,01,09,24,19.20
2014,05,01,09,25,19.20
2014,05,01,09,26,19.20
2014,05,01,09,27,19.30
2014,05,01,09,28,19.40
2014,05,01,09,29,19.50
2014,05,01,09,30,19.60
2014,05,01,09,31,19.60
2014,05,01,09,32,19.70
2014,05,01,09,33,19.80
2014,05,01,09,34,19.90
2014,05,01,09,35,19.90
2014,05,01,09,36,20.00
2014,05,01,09,37,20.10
2014,05,01,09,38,20.20
2014,05,01,09,39,20.20
2014,05,01,09,40,20.30
2014,05,01,09,41,20.30
2014,05,01,09,42,20.40
2014,05,01,09,43,20.50
2014,05,01,09,44,20.50
2014,05,01,09,45,20.60
2014,05,01,09,46,20.70
2014,05,01,09,47,20.80
2014,05,01,09,48,21.00
2014,05,01,09,49,21.10
2014,05,01,09,50,21.20
2014,05,01,09,51,21.30
2014,05,01,09,52,21.40
2014,05,01,09,53,21.50
2014,05,01,09,54,21.60
2014,05,01,09,55,21.60
2014,05,01,09,56,21.70
2014,05,01,09,57,21.70
2014,05,01,09,58,21.80
2014,05,01,09,59,21.80
2014,05,01,10,00,21.80
2014,05,01,10,01,21.80
2014,05,01,10,02,21.80
2014,05,01,10,03,21.80
2014,05,01,10,04,21.80
2014,05,01,10,05,21.80
2014,05,01,10,06,21.80
2014,05,01,10,07,21.80
2014,05,01,10,08,21.90
2014,05,01,10,09,22.00
2014,05,01,10,10,22.00
2014,05,01,10,11,22.10
2014,05,01,10,12,22.20
2014,05,01,10,13,22.20
2014,05,01,10,14,22.30
2014,05,01,10,15,22.30
2014,05,01,10,16,22.30
2014,05,01,10,17,22.30
2014,05,01,10,18,22.40
2014,05,01,10,19,22.40
2014,05,01,10,20,22.40
2014,05,01,10,21,22.40
2014,05,01,10,22,22.40
2014,05,01,10,23,22.40
2014,05,01,10,24,22.50
2014,05,01,10,25,22.50
2014,05,01,10,26,22.50
2014,05,01,10,27,22.50
2014,05,01,10,28,22.50
2014,05,01,10,29,22.60
2014,05,01,10,30,22.60
2014,05,01,10,31,22.60
2014,05,01,10,32,22.70
2014,05,01,10,33,22.70
2014,05,01,10,34,22.80
2014,05,01,10,35,22.80
2014,05,01,10,36,22.80
2014,05,01,10,37,22.80
2014,05,01,10,38,22.90
2014,05,01,10,39,22.90
2014,05,01,10,40,22.90
2014,05,01,10,41,22.90
2014,05,01,10,42,22.90
2014,05,01,10,43,22.90
2014,05,01,10,44,23.00
2014,05,01,10,45,23.10
2014,05,01,10,46,23.20
2014,05,01,10,47,23.30
2014,05,01,10,48,23.30
2014,05,01,10,49,23.30
2014,05,01,10,50,23.30
2014,05,01,10,51,23.30
2014,05,01,10,52,23.30
2014,05,01,10,53,23.30
2014,05,01,10,54,23.10
2014,05,01,10,55,22.60
2014,05,01,10,56,22.30
2014,05,01,10,57,22.20
2014,05,01,10,58,22.00
2014,05,01,10,59,21.40
2014,05,01,11,00,20.70
2014,05,01,11,01,20.10
2014,05,01,11,02,19.60
2014,05,01,11,03,19.30
2014,05,01,11,04,19.00
2014,05,01,11,05,18.80
2014,05,01,11,06,18.70
2014,05,01,11,07,18.60
2014,05,01,11,08,18.50
2014,05,01,11,09,18.50
2014,05,01,11,10,18.50
2014,05,01,11,11,18.50
2014,05,01,11,12,18.60
2014,05,01,11,13,18.60
2014,05,01,11,14,18.60
2014,05,01,11,15,18.60
2014,05,01,11,16,18.60
2014,05,01,11,17,18.70
2014,05,01,11,18,18.70
2014,05,01,11,19,18.60
2014,05,01,11,20,18.50
2014,05,01,11,21,18.40
2014,05,01,11,22,18.40
2014,05,01,11,23,18.50
2014,05,01,11,24,18.60
2014,05,01,11,25,18.80
2014,05,01,11,26,18.80
2014,05,01,11,27,18.80
2014,05,01,11,28,18.80
2014,05,01,11,29,18.70
2014,05,01,11,30,18.50
2014,05,01,11,31,18.30
2014,05,01,11,32,18.10
2014,05,01,11,33,18.10
2014,05,01,11,34,17.90
2014,05,01,11,35,17.90
2014,05,01,11,36,17.90
2014,05,01,11,37,17.90
2014,05,01,11,38,17.90
2014,05,01,11,39,17.90
2014,05,01,11,40,17.90
2014,05,01,11,41,17.80
2014,05,01,11,42,17.70
2014,05,01,11,43,17.60
2014,05,01,11,44,17.30
2014,05,01,11,45,17.10
2014,05,01,11,46,17.00
2014,05,01,11,47,17.00
2014,05,01,11,48,17.00
2014,05,01,11,49,16.90
2014,05,01,11,50,17.00
2014,05,01,11,51,17.10
2014,05,01,11,52,17.00
2014,05,01,11,53,16.90
2014,05,01,11,54,16.80
2014,05,01,11,55,16.90
2014,05,01,11,56,17.00
2014,05,01,11,57,17.20
2014,05,01,11,58,17.30
2014,05,01,11,59,17.40
2014,05,01,12,00,17.40
2014,05,01,12,01,17.40
2014,05,01,12,02,17.40
2014,05,01,12,03,17.40
2014,05,01,12,04,17.40
2014,05,01,12,05,17.40
2014,05,01,12,06,17.40
2014,05,01,12,07,17.40
2014,05,01,12,08,17.40
2014,05,01,12,09,17.50
2014,05,01,12,10,17.50
2014,05,01,12,11,17.40
2014,05,01,12,12,17.30
2014,05,01,12,13,17.30
2014,05,01,12,14,17.30
2014,05,01,12,15,17.30
2014,05,01,12,16,17.40
2014,05,01,12,17,17.50
2014,05,01,12,18,17.70
2014,05,01,12,19,17.90
2014,05,01,12,20,18.00
2014,05,01,12,21,18.10
2014,05,01,12,22,18.20
2014,05,01,12,23,18.20
2014,05,01,12,24,18.20
2014,05,01,12,25,18.10
2014,05,01,12,26,18.00
2014,05,01,12,27,17.90
2014,05,01,12,28,17.90
2014,05,01,12,29,17.90
2014,05,01,12,30,17.90
2014,05,01,12,31,17.90
2014,05,01,12,32,17.90
2014,05,01,12,33,17.90
2014,05,01,12,34,17.90
2014,05,01,12,35,17.90
2014,05,01,12,36,18.00
2014,05,01,12,37,18.10
2014,05,01,12,38,18.10
2014,05,01,12,39,18.20
2014,05,01,12,40,18.30
2014,05,01,12,41,18.50
2014,05,01,12,42,18.50
2014,05,01,12,43,18.60
2014,05,01,12,44,18.60
2014,05,01,12,45,18.70
2014,05,01,12,46,18.80
2014,05,01,12,47,18.90
2014,05,01,12,48,19.00
2014,05,01,12,49,19.10
2014,05,01,12,50,19.10
2014,05,01,12,51,19.10
2014,05,01,12,52,19.10
2014,05,01,12,53,19.10
2014,05,01,12,54,19.20
2014,05,01,12,55,19.40
2014,05,01,12,56,19.60
2014,05,01,12,57,19.70
2014,05,01,12,58,19.90
2014,05,01,12,59,20.00
2014,05,01,13,00,20.10
2014,05,01,13,01,20.30
2014,05,01,13,02,20.50
2014,05,01,13,03,20.70
2014,05,01,13,04,20.90
2014,05,01,13,05,21.00
2014,05,01,13,06,21.00
2014,05,01,13,07,21.00
2014,05,01,13,08,21.00
2014,05,01,13,09,21.20
2014,05,01,13,10,21.30
2014,05,01,13,11,21.30
2014,05,01,13,12,21.30
2014,05,01,13,13,21.30
2014,05,01,13,14,21.20
2014,05,01,13,15,21.10
2014,05,01,13,16,21.10
2014,05,01,13,17,21.00
2014,05,01,13,18,21.00
2014,05,01,13,19,21.00
2014,05,01,13,20,21.00
2014,05,01,13,21,21.00
2014,05,01,13,22,21.10
2014,05,01,13,23,21.10
2014,05,01,13,24,21.10
2014,05,01,13,25,21.20
2014,05,01,13,26,21.20
2014,05,01,13,27,21.10
2014,05,01,13,28,21.10
2014,05,01,13,29,21.00
2014,05,01,13,30,20.80
2014,05,01,13,31,20.90
2014,05,01,13,32,20.80
2014,05,01,13,33,20.70
2014,05,01,13,34,20.60
2014,05,01,13,35,20.40
2014,05,01,13,36,20.20
2014,05,01,13,37,20.10
2014,05,01,13,38,20.10
2014,05,01,13,39,20.30
2014,05,01,13,40,20.50
2014,05,01,13,41,20.60
2014,05,01,13,42,20.70
2014,05,01,13,43,20.60
2014,05,01,13,44,20.40
2014,05,01,13,45,20.20
2014,05,01,13,46,20.20
2014,05,01,13,47,20.30
2014,05,01,13,48,20.30
2014,05,01,13,49,20.40
2014,05,01,13,50,20.40
2014,05,01,13,51,20.40
2014,05,01,13,52,20.40
2014,05,01,13,53,20.30
2014,05,01,13,54,20.30
2014,05,01,13,55,20.20
2014,05,01,13,56,20.10
2014,05,01,13,57,20.10
2014,05,01,13,58,20.20
2014,05,01,13,59,20.30
2014,05,01,14,00,20.30
2014,05,01,14,01,20.40
2014,05,01,14,02,20.40
2014,05,01,14,03,20.40
2014,05,01,14,04,20.30
2014,05,01,14,05,20.20
2014,05,01,14,06,20.20
2014,05,01,14,07,20.20
2014,05,01,14,08,20.20
2014,05,01,14,09,20.20
2014,05,01,14,10,20.20
2014,05,01,14,11,20.20
2014,05,01,14,12,20.30
2014,05,01,14,13,20.30
2014,05,01,14,14,20.40
2014,05,01,14,15,20.50
2014,05,01,14,16,20.60
2014,05,01,14,17,20.70
2014,05,01,14,18,20.70
2014,05,01,14,19,20.70
2014,05,01,14,20,20.70
2014,05,01,14,21,20.70
2014,05,01,14,22,20.70
2014,05,01,14,23,20.70
2014,05,01,14,24,20.70
2014,05,01,14,25,20.80
2014,05,01,14,26,20.80
2014,05,01,14,27,20.80
2014,05,01,14,28,20.80
2014,05,01,14,29,20.80
2014,05,01,14,30,20.70
2014,05,01,14,31,20.50
2014,05,01,14,32,20.40
2014,05,01,14,33,20.30
2014,05,01,14,34,20.30
2014,05,01,14,35,20.20
2014,05,01,14,36,20.20
2014,05,01,14,37,20.20
2014,05,01,14,38,20.10
2014,05,01,14,39,19.90
2014,05,01,14,40,19.90
2014,05,01,14,41,19.70
2014,05,01,14,42,19.70
2014,05,01,14,43,19.70
2014,05,01,14,44,19.60
2014,05,01,14,45,19.60
2014,05,01,14,46,19.60
2014,05,01,14,47,19.50
2014,05,01,14,48,19.50
2014,05,01,14,49,19.40
2014,05,01,14,50,19.30
2014,05,01,14,51,19.20
2014,05,01,14,52,19.10
2014,05,01,14,53,19.10
2014,05,01,14,54,19.00
2014,05,01,14,55,19.00
2014,05,01,14,56,19.10
2014,05,01,14,57,19.10
2014,05,01,14,58,19.10
2014,05,01,14,59,19.10
2014,05,01,15,00,19.10
2014,05,01,15,01,19.10
2014,05,01,15,02,19.00
2014,05,01,15,03,18.90
2014,05,01,15,04,18.90
2014,05,01,15,05,18.90
2014,05,01,15,06,19.00
2014,05,01,15,07,19.10
2014,05,01,15,08,19.10
2014,05,01,15,09,19.20
2014,05,01,15,10,19.30
2014,05,01,15,11,19.30
2014,05,01,15,12,19.40
2014,05,01,15,13,19.30
2014,05,01,15,14,19.30
2014,05,01,15,15,19.20
2014,05,01,15,16,19.00
2014,05,01,15,17,18.90
2014,05,01,15,18,18.90
2014,05,01,15,19,19.00
2014,05,01,15,20,19.10
2014,05,01,15,21,19.20
2014,05,01,15,22,19.20
2014,05,01,15,23,19.30
2014,05,01,15,24,19.30
2014,05,01,15,25,19.20
2014,05,01,15,26,19.20
2014,05,01,15,27,19.20
2014,05,01,15,28,19.30
2014,05,01,15,29,19.30
2014,05,01,15,30,19.30
2014,05,01,15,31,19.30
2014,05,01,15,32,19.30
2014,05,01,15,33,19.30
2014,05,01,15,34,19.40
2014,05,01,15,35,19.30
2014,05,01,15,36,19.40
2014,05,01,15,37,19.50
2014,05,01,15,38,19.40
2014,05,01,15,39,19.40
2014,05,01,15,40,19.30
2014,05,01,15,41,19.20
2014,05,01,15,42,19.20
2014,05,01,15,43,19.20
2014,05,01,15,44,19.30
2014,05,01,15,45,19.30
2014,05,01,15,46,19.20
2014,05,01,15,47,19.20
2014,05,01,15,48,19.10
2014,05,01,15,49,19.20
2014,05,01,15,50,19.20
2014,05,01,15,51,19.30
2014,05,01,15,52,19.40
2014,05,01,15,53,19.50
2014,05,01,15,54,19.60
2014,05,01,15,55,19.70
2014,05,01,15,56,19.70
2014,05,01,15,57,19.80
2014,05,01,15,58,19.90
2014,05,01,15,59,19.90
2014,05,01,16,00,20.00
2014,05,01,16,01,20.10
2014,05,01,16,02,20.10
2014,05,01,16,03,20.20
2014,05,01,16,04,20.20
2014,05,01,16,05,20.20
2014,05,01,16,06,20.20
2014,05,01,16,07,20.20
2014,05,01,16,08,20.20
2014,05,01,16,09,20.30
2014,05,01,16,10,20.30
2014,05,01,16,11,20.30
2014,05,01,16,12,20.20
2014,05,01,16,13,20.40
2014,05,01,16,14,20.50
2014,05,01,16,15,20.60
2014,05,01,16,16,20.70
2014,05,01,16,17,20.80
2014,05,01,16,18,20.90
2014,05,01,16,19,21.10
2014,05,01,16,20,21.20
2014,05,01,16,21,21.30
2014,05,01,16,22,21.30
2014,05,01,16,23,21.40
2014,05,01,16,24,21.50
2014,05,01,16,25,21.60
2014,05,01,16,26,21.60
2014,05,01,16,27,21.60
2014,05,01,16,28,21.60
2014,05,01,16,29,21.60
2014,05,01,16,30,21.60
2014,05,01,16,31,21.50
2014,05,01,16,32,21.40
2014,05,01,16,33,21.30
2014,05,01,16,34,21.30
2014,05,01,16,35,21.30
2014,05,01,16,36,21.30
2014,05,01,16,37,21.30
2014,05,01,16,38,21.30
2014,05,01,16,39,21.20
2014,05,01,16,40,21.20
2014,05,01,16,41,21.20
2014,05,01,16,42,21.10
2014,05,01,16,43,21.10
2014,05,01,16,44,21.10
2014,05,01,16,45,21.10
2014,05,01,16,46,21.10
2014,05,01,16,47,21.10
2014,05,01,16,48,21.00
2014,05,01,16,49,21.00
2014,05,01,16,50,21.00
2014,05,01,16,51,21.10
2014,05,01,16,52,21.10
2014,05,01,16,53,21.10
2014,05,01,16,54,21.10
2014,05,01,16,55,21.10
2014,05,01,16,56,21.10
2014,05,01,16,57,21.20
2014,05,01,16,58,21.10
2014,05,01,16,59,21.10
2014,05,01,17,00,21.00
2014,05,01,17,01,21.00
2014,05,01,17,02,21.00
2014,05,01,17,03,21.10
2014,05,01,17,04,21.00
2014,05,01,17,05,21.00
2014,05,01,17,06,21.10
2014,05,01,17,07,21.10
2014,05,01,17,08,21.10
2014,05,01,17,09,21.10
2014,05,01,17,10,21.00
2014,05,01,17,11,21.00
2014,05,01,17,12,21.00
2014,05,01,17,13,21.00
2014,05,01,17,14,21.00
2014,05,01,17,15,21.00
2014,05,01,17,16,21.00
2014,05,01,17,17,21.00
2014,05,01,17,18,21.00
2014,05,01,17,19,21.10